FW8891 Weather Reports


Display with metric or nautical units.
time (UTC)temp
F
wind
direction
speed
MPH
gust
MPH
rain 1hr
in
rain 24hr
in
rain mn
in
humidity
%
barometer
mb
20260904222058 99 127 5.0 11.0 0.00 0.00 0.00 34 1010.9
20260904221605 99 120 6.0 11.0 0.00 0.00 0.00 33 1010.9
20260904221101 100 106 3.0 9.0 0.00 0.00 0.00 33 1011.0
20260904220600 101 130 5.0 10.0 0.00 0.00 0.00 32 1011.0
20260904220112 101 233 4.0 10.0 0.00 0.00 0.00 32 1011.1
20260904215603 102 136 4.0 10.0 0.00 0.00 0.00 31 1011.2
20260904215104 102 269 6.0 10.0 0.00 0.00 0.00 32 1011.2
20260904214605 102 271 3.0 7.0 0.00 0.00 0.00 33 1011.3
20260904214100 101 243 4.0 9.0 0.00 0.00 0.00 34 1011.3
20260904213600 101 109 2.0 11.0 0.00 0.00 0.00 34 1011.4
20260904213106 101 117 7.0 11.0 0.00 0.00 0.00 33 1011.5
20260904212601 100 108 5.0 14.0 0.00 0.00 0.00 36 1011.5
20260904212059 100 257 6.0 14.0 0.00 0.00 0.00 35 1011.6
20260904211608 100 163 5.0 11.0 0.00 0.00 0.00 35 1011.6
20260904211059 102 143 4.0 11.0 0.00 0.00 0.00 34 1011.8
20260904210600 101 243 5.0 13.0 0.00 0.00 0.00 34 1011.8
20260904210111 101 183 7.0 13.0 0.00 0.00 0.00 34 1011.9
20260904205600 99 129 7.0 13.0 0.00 0.00 0.00 37 1011.8
20260904205100 100 146 4.0 12.0 0.00 0.00 0.00 36 1011.9
20260904204606 100 191 5.0 10.0 0.00 0.00 0.00 36 1012.0
20260904204100 100 169 5.0 11.0 0.00 0.00 0.00 35 1012.0
20260904203600 100 168 5.0 11.0 0.00 0.00 0.00 37 1012.1
20260904203106 101 105 5.0 12.0 0.00 0.00 0.00 36 1012.1
20260904202619 100 236 5.0 12.0 0.00 0.00 0.00 35 1012.2
20260904202058 100 168 4.0 9.0 0.00 0.00 0.00 37 1012.3
20260904201606 100 108 3.0 9.0 0.00 0.00 0.00 38 1012.4
20260904201058 100 94 1.0 14.0 0.00 0.00 0.00 38 1012.5
20260904200601 100 147 4.0 14.0 0.00 0.00 0.00 38 1012.7
20260904200124 100 129 4.0 10.0 0.00 0.00 0.00 38 1012.6
20260904195559 100 215 3.0 10.0 0.00 0.00 0.00 38 1012.7
20260904195104 100 187 6.0 13.0 0.00 0.00 0.00 38 1012.6
20260904194635 99 193 6.0 13.0 0.00 0.00 0.00 38 1012.7
20260904194059 99 143 7.0 13.0 0.00 0.00 0.00 38 1012.7
20260904193558 98 90 2.0 8.0 0.00 0.00 0.00 40 1012.7
20260904193105 97 10 3.0 9.0 0.00 0.00 0.00 40 1012.9
20260904192559 98 144 4.0 9.0 0.00 0.00 0.00 41 1013.0
20260904192101 97 146 3.0 8.0 0.00 0.00 0.00 41 1012.9
20260904191622 98 124 3.0 7.0 0.00 0.00 0.00 41 1013.1
20260904191059 98 127 2.0 15.0 0.00 0.00 0.00 41 1013.2
20260904190559 96 127 7.0 15.0 0.00 0.00 0.00 41 1013.3
20260904190101 97 91 6.0 11.0 0.00 0.00 0.00 40 1013.3
20260904185559 97 96 1.0 8.0 0.00 0.00 0.00 42 1013.3
20260904185059 96 90 4.0 8.0 0.00 0.00 0.00 42 1013.4
20260904184611 96 116 2.0 12.0 0.00 0.00 0.00 43 1013.5
20260904184103 96 174 3.0 13.0 0.00 0.00 0.00 44 1013.6
20260904183559 96 122 6.0 13.0 0.00 0.00 0.00 44 1013.6
20260904183108 97 123 2.0 7.0 0.00 0.00 0.00 43 1013.7
20260904182558 96 192 3.0 10.0 0.00 0.00 0.00 43 1013.7
20260904182058 96 96 4.0 10.0 0.00 0.00 0.00 44 1013.9
20260904181601 95 134 2.0 9.0 0.00 0.00 0.00 46 1013.9
20260904181058 94 114 2.0 9.0 0.00 0.00 0.00 49 1014.1
20260904180559 95 123 4.0 9.0 0.00 0.00 0.00 47 1014.1
20260904175559 94 133 3.0 12.0 0.00 0.00 0.00 47 1014.1
20260904175100 94 102 6.0 12.0 0.00 0.00 0.00 48 1014.2
20260904174605 93 103 2.0 9.0 0.00 0.00 0.00 50 1014.1
20260904174058 94 131 3.0 9.0 0.00 0.00 0.00 50 1014.2
20260904173558 94 112 4.0 9.0 0.00 0.00 0.00 51 1014.2
20260904173111 94 142 3.0 8.0 0.00 0.00 0.00 51 1014.2
20260904172559 93 111 2.0 7.0 0.00 0.00 0.00 50 1014.2
20260904172059 93 141 4.0 6.0 0.00 0.00 0.00 50 1014.2
20260904171601 92 184 2.0 9.0 0.00 0.00 0.00 53 1014.2
20260904171059 92 148 5.0 9.0 0.00 0.00 0.00 52 1014.2
20260904170603 92 143 1.0 8.0 0.00 0.00 0.00 54 1014.2
20260904170059 91 125 2.0 8.0 0.00 0.00 0.00 55 1014.2
20260904165559 92 148 3.0 8.0 0.00 0.00 0.00 54 1014.2
20260904165059 92 132 4.0 7.0 0.00 0.00 0.00 54 1014.1
20260904164603 92 129 2.0 8.0 0.00 0.00 0.00 54 1014.1
20260904164101 91 110 4.0 8.0 0.00 0.00 0.00 54 1014.2
20260904163601 91 100 4.0 7.0 0.00 0.00 0.00 54 1014.1
20260904163105 91 139 3.0 6.0 0.00 0.00 0.00 55 1014.0
20260904162559 91 138 2.0 5.0 0.00 0.00 0.00 56 1013.9
20260904162058 91 131 3.0 5.0 0.00 0.00 0.00 55 1014.0
20260904161601 91 124 3.0 6.0 0.00 0.00 0.00 56 1014.0
20260904161058 91 157 3.0 6.0 0.00 0.00 0.00 55 1014.0
20260904160558 91 165 3.0 5.0 0.00 0.00 0.00 56 1013.9
20260904160103 90 152 3.0 5.0 0.00 0.00 0.00 56 1013.9
20260904155600 90 150 1.0 8.0 0.00 0.00 0.00 56 1013.9
20260904155059 90 136 2.0 8.0 0.00 0.00 0.00 55 1013.9
20260904154620 90 60 1.0 6.0 0.00 0.00 0.00 56 1013.9
20260904154059 90 63 0.0 6.0 0.00 0.00 0.00 57 1013.9
20260904153559 89 129 2.0 6.0 0.00 0.00 0.00 57 1013.9
20260904153102 89 100 3.0 6.0 0.00 0.00 0.00 57 1013.9
20260904152559 89 38 0.0 5.0 0.00 0.00 0.00 58 1013.8
20260904152059 88 122 1.0 5.0 0.00 0.00 0.00 59 1013.8
20260904151610 88 135 2.0 5.0 0.00 0.00 0.00 59 1013.9
20260904151059 88 139 2.0 6.0 0.00 0.00 0.00 59 1013.9
20260904150559 88 122 2.0 6.0 0.00 0.00 0.00 59 1013.8
20260904150101 87 119 3.0 6.0 0.00 0.00 0.00 59 1013.8
20260904145559 87 126 3.0 5.0 0.00 0.00 0.00 60 1013.7
20260904145058 87 108 1.0 5.0 0.00 0.00 0.00 60 1013.7
20260904144604 87 91 2.0 5.0 0.00 0.00 0.00 60 1013.6
20260904144107 87 65 1.0 6.0 0.00 0.00 0.00 60 1013.6
20260904143558 86 78 2.0 6.0 0.00 0.00 0.00 60 1013.6
20260904143101 86 104 1.0 5.0 0.00 0.00 0.00 60 1013.5
20260904142559 86 140 1.0 5.0 0.00 0.00 0.00 60 1013.5
20260904142059 86 95 2.0 5.0 0.00 0.00 0.00 60 1013.3
20260904141623 85 0 2.0 4.0 0.00 0.00 0.00 60 1013.3
20260904141059 85 0 0.0 4.0 0.00 0.00 0.00 60 1013.3
20260904140559 84 68 0.0 3.0 0.00 0.00 0.00 60 1013.2
20260904140109 84 53 0.0 3.0 0.00 0.00 0.00 59 1013.1
20260904135559 83 48 1.0 3.0 0.00 0.00 0.00 58 1012.9
20260904135059 83 47 1.0 2.0 0.00 0.00 0.00 58 1012.9
20260904134621 83 72 0.0 2.0 0.00 0.00 0.00 58 1012.8
20260904134059 83 65 0.0 2.0 0.00 0.00 0.00 58 1012.7
20260904133559 82 0 0.0 1.0 0.00 0.00 0.00 58 1012.6
20260904133117 81 0 0.0 1.0 0.00 0.00 0.00 58 1012.6
20260904132559 81 57 0.0 1.0 0.00 0.00 0.00 59 1012.5
20260904132101 81 0 0.0 2.0 0.00 0.00 0.00 59 1012.6
20260904131614 81 0 0.0 2.0 0.00 0.00 0.00 59 1012.5
20260904131059 80 0 0.0 1.0 0.00 0.00 0.00 59 1012.4
20260904130601 80 0 0.0 2.0 0.00 0.00 0.00 59 1012.3
20260904125602 80 64 1.0 3.0 0.00 0.00 0.00 59 1012.3
20260904125059 80 60 1.0 2.0 0.00 0.00 0.00 59 1012.1
20260904124600 80 0 0.0 0.0 0.00 0.00 0.00 60 1012.1
20260904124058 80 0 0.0 0.0 0.00 0.00 0.00 60 1012.1
20260904123600 80 0 0.0 0.0 0.00 0.00 0.00 60 1012.0
20260904123121 80 0 0.0 0.0 0.00 0.00 0.00 60 1012.0
20260904122559 80 0 0.0 0.0 0.00 0.00 0.00 60 1011.9
20260904122101 81 0 0.0 0.0 0.00 0.00 0.00 59 1012.0
20260904121601 81 0 0.0 0.0 0.00 0.00 0.00 59 1011.9
20260904121058 81 0 0.0 1.0 0.00 0.00 0.00 59 1011.9
20260904120558 81 0 0.0 1.0 0.00 0.00 0.00 58 1011.9
20260904120104 81 0 0.0 2.0 0.00 0.00 0.00 58 1011.9
20260904115559 81 328 0.0 2.0 0.00 0.00 0.00 58 1011.9
20260904115103 81 60 1.0 2.0 0.00 0.00 0.00 58 1011.9
20260904114602 81 0 0.0 1.0 0.00 0.00 0.00 58 1011.9
20260904114100 81 63 0.0 1.0 0.00 0.00 0.00 58 1011.8
20260904113603 81 322 0.0 1.0 0.00 0.00 0.00 58 1011.7
20260904113108 81 321 0.0 2.0 0.00 0.00 0.00 57 1011.7
20260904112559 82 321 0.0 3.0 0.00 0.00 0.00 57 1011.7
20260904112101 82 326 2.0 3.0 0.00 0.00 0.00 57 1011.7
20260904111601 82 0 0.0 2.0 0.00 0.00 0.00 56 1011.7
20260904111059 82 340 0.0 2.0 0.00 0.00 0.00 56 1011.7
20260904110601 82 338 0.0 2.0 0.00 0.00 0.00 56 1011.8
20260904110124 82 359 0.0 2.0 0.00 0.00 0.00 56 1011.7
20260904105600 82 359 0.0 1.0 0.00 0.00 0.00 55 1011.7
20260904105100 82 0 0.0 0.0 0.00 0.00 0.00 55 1011.6
20260904104616 82 0 0.0 0.0 0.00 0.00 0.00 54 1011.6
20260904104059 83 0 0.0 0.0 0.00 0.00 0.00 54 1011.5
20260904103600 83 0 0.0 2.0 0.00 0.00 0.00 54 1011.5
20260904103123 83 0 0.0 2.0 0.00 0.00 0.00 53 1011.5
20260904102559 83 325 1.0 2.0 0.00 0.00 0.00 53 1011.5
20260904102100 83 323 0.0 3.0 0.00 0.00 0.00 53 1011.5
20260904101623 83 332 1.0 3.0 0.00 0.00 0.00 52 1011.4
20260904101059 83 332 1.0 3.0 0.00 0.00 0.00 52 1011.3
20260904100601 83 0 0.0 0.0 0.00 0.00 0.00 51 1011.3
20260904100111 84 0 0.0 0.0 0.00 0.00 0.00 50 1011.2
20260904095600 84 0 0.0 0.0 0.00 0.00 0.00 50 1011.2
20260904095100 84 0 0.0 0.0 0.00 0.00 0.00 49 1011.2
20260904094619 84 0 0.0 0.0 0.00 0.00 0.00 49 1011.2
20260904094100 85 0 0.0 0.0 0.00 0.00 0.00 48 1011.1
20260904093603 85 0 0.0 1.0 0.00 0.00 0.00 49 1011.1
20260904093126 85 0 0.0 1.0 0.00 0.00 0.00 48 1011.1
20260904092600 85 0 0.0 1.0 0.00 0.00 0.00 48 1011.1
20260904092100 85 0 0.0 3.0 0.00 0.00 0.00 47 1011.1
20260904091618 85 0 0.0 3.0 0.00 0.00 0.00 47 1011.1
20260904091100 85 0 1.0 3.0 0.00 0.00 0.00 47 1011.1
20260904090559 86 273 0.0 3.0 0.00 0.00 0.00 47 1011.1
20260904090124 86 229 1.0 3.0 0.00 0.00 0.00 47 1011.1
20260904085559 86 239 1.0 3.0 0.00 0.00 0.00 49 1011.0
20260904085059 86 0 1.0 4.0 0.00 0.00 0.00 48 1011.0
20260904084621 86 191 0.0 4.0 0.00 0.00 0.00 48 1011.0
20260904084059 86 235 2.0 4.0 0.00 0.00 0.00 49 1011.0
20260904083559 86 224 0.0 2.0 0.00 0.00 0.00 49 1011.0
20260904083113 86 0 0.0 1.0 0.00 0.00 0.00 49 1011.2
20260904082600 86 238 0.0 1.0 0.00 0.00 0.00 49 1011.1
20260904082100 86 210 0.0 2.0 0.00 0.00 0.00 48 1011.2
20260904081620 87 0 0.0 2.0 0.00 0.00 0.00 48 1011.1
20260904081059 87 0 0.0 2.0 0.00 0.00 0.00 48 1011.1
20260904080559 87 0 0.0 2.0 0.00 0.00 0.00 48 1011.1
20260904080121 88 0 0.0 2.0 0.00 0.00 0.00 47 1011.0
20260904075558 88 232 1.0 3.0 0.00 0.00 0.00 47 1011.1
20260904075102 88 190 1.0 5.0 0.00 0.00 0.00 46 1011.1
20260904074604 89 193 3.0 8.0 0.00 0.00 0.00 46 1011.1
20260904074100 89 195 3.0 12.0 0.00 0.00 0.00 45 1011.1
20260904073559 89 198 5.0 12.0 0.00 0.00 0.00 45 1011.0
20260904073106 89 229 4.0 12.0 0.00 0.00 0.00 46 1011.1
20260904072559 89 200 2.0 7.0 0.00 0.00 0.00 48 1011.1
20260904072059 89 170 2.0 7.0 0.00 0.00 0.00 48 1011.1
20260904071601 89 194 4.0 7.0 0.00 0.00 0.00 47 1011.1
20260904071059 89 231 3.0 7.0 0.00 0.00 0.00 48 1011.1
20260904070600 89 224 3.0 7.0 0.00 0.00 0.00 48 1011.1
20260904065559 90 221 3.0 6.0 0.00 0.00 0.00 47 1011.0
20260904065100 90 205 4.0 6.0 0.00 0.00 0.00 47 1011.0
20260904064621 90 245 3.0 10.0 0.00 0.00 0.00 46 1010.9
20260904064102 90 220 4.0 10.0 0.00 0.00 0.00 46 1010.8
20260904063600 90 229 4.0 10.0 0.00 0.00 0.00 46 1010.7
20260904063102 90 221 4.0 10.0 0.00 0.00 0.00 46 1010.7
20260904062559 91 195 5.0 10.0 0.00 0.00 0.00 46 1010.7
20260904062058 91 179 4.0 8.0 0.00 0.00 0.00 45 1010.7
20260904061601 91 224 5.0 8.0 0.00 0.00 0.00 45 1010.7
20260904061103 91 230 4.0 8.0 0.00 0.00 0.00 45 1010.6
20260904060559 91 184 4.0 8.0 0.00 0.00 0.00 45 1010.6
20260904055600 91 175 4.0 7.0 0.00 0.00 0.00 44 1010.4
20260904055101 91 174 4.0 7.0 0.00 0.00 0.00 44 1010.4
20260904054603 91 188 2.0 5.0 0.00 0.00 0.00 45 1010.3
20260904054101 91 169 2.0 4.0 0.00 0.00 0.00 46 1010.3
20260904053600 90 174 1.0 6.0 0.00 0.00 0.00 47 1010.4
20260904053104 91 166 2.0 6.0 0.00 0.00 0.00 48 1010.4
20260904052559 91 146 2.0 4.0 0.00 0.00 0.00 48 1010.4
20260904052100 91 147 2.0 5.0 0.00 0.00 0.00 48 1010.3
20260904051607 92 171 2.0 5.0 0.00 0.00 0.00 46 1010.4
20260904051059 92 167 3.0 5.0 0.00 0.00 0.00 45 1010.3
20260904050559 92 167 3.0 5.0 0.00 0.00 0.00 46 1010.2
20260904050142 92 147 2.0 5.0 0.00 0.00 0.00 46 1010.3
20260904045559 92 158 1.0 4.0 0.00 0.00 0.00 46 1010.2
20260904045058 93 117 2.0 7.0 0.00 0.00 0.00 45 1010.2
20260904044611 93 124 3.0 8.0 0.00 0.00 0.00 45 1010.2
20260904044100 93 190 4.0 8.0 0.00 0.00 0.00 45 1010.2
20260904043558 93 190 4.0 8.0 0.00 0.00 0.00 44 1010.1
20260904043121 93 162 2.0 6.0 0.00 0.00 0.00 44 1010.1
20260904042602 93 143 3.0 8.0 0.00 0.00 0.00 43 1010.1
20260904042100 93 153 3.0 8.0 0.00 0.00 0.00 43 1010.1
20260904041617 94 179 4.0 8.0 0.00 0.00 0.00 42 1010.1
20260904041059 94 186 3.0 5.0 0.00 0.00 0.00 42 1010.0
20260904040600 94 245 2.0 5.0 0.00 0.00 0.00 41 1009.9
20260904040123 94 194 2.0 5.0 0.00 0.00 0.00 41 1009.9
20260904035559 94 204 3.0 5.0 0.00 0.00 0.00 41 1009.9
20260904035059 94 169 3.0 7.0 0.00 0.00 0.00 40 1009.7
20260904034614 94 156 3.0 8.0 0.00 0.00 0.00 40 1009.7
20260904034059 94 193 4.0 8.0 0.00 0.00 0.00 40 1009.6
20260904033601 94 158 3.0 7.0 0.00 0.00 0.00 40 1009.5
20260904033108 94 194 3.0 7.0 0.00 0.00 0.00 40 1009.5
20260904032557 95 150 3.0 7.0 0.00 0.00 0.00 40 1009.4
20260904032058 95 210 4.0 8.0 0.00 0.00 0.00 40 1009.4
20260904031604 95 217 3.0 8.0 0.00 0.00 0.00 40 1009.3
20260904031058 95 180 4.0 8.0 0.00 0.00 0.00 40 1009.2
20260904030558 95 210 5.0 8.0 0.00 0.00 0.00 40 1009.2
20260904030103 95 179 4.0 5.0 0.00 0.00 0.00 40 1009.1
20260904025558 95 199 2.0 6.0 0.00 0.00 0.00 39 1009.1
20260904025057 96 200 3.0 6.0 0.00 0.00 0.00 38 1009.0
20260904024607 96 204 3.0 10.0 0.00 0.00 0.00 38 1009.0
20260904024057 96 209 5.0 10.0 0.00 0.00 0.00 38 1008.9
20260904023557 96 185 4.0 8.0 0.00 0.00 0.00 38 1008.8
20260904023111 96 218 3.0 7.0 0.00 0.00 0.00 38 1008.9
20260904022558 96 194 4.0 9.0 0.00 0.00 0.00 37 1008.7
20260904022058 96 163 3.0 9.0 0.00 0.00 0.00 37 1008.7
20260904021622 97 219 6.0 9.0 0.00 0.00 0.00 36 1008.6
20260904021058 97 205 4.0 8.0 0.00 0.00 0.00 35 1008.6
20260904020559 97 131 5.0 8.0 0.00 0.00 0.00 33 1008.6
20260904015558 97 181 5.0 8.0 0.00 0.00 0.00 32 1008.5
20260904015058 98 181 4.0 8.0 0.00 0.00 0.00 33 1008.5
20260904014633 98 198 4.0 9.0 0.00 0.00 0.00 32 1008.5
20260904014058 98 206 4.0 10.0 0.00 0.00 0.00 32 1008.5
20260904013559 98 227 4.0 10.0 0.00 0.00 0.00 32 1008.5
20260904013059 98 120 3.0 10.0 0.00 0.00 0.00 32 1008.5
20260904012558 98 198 5.0 9.0 0.00 0.00 0.00 32 1008.5
20260904012058 99 176 5.0 11.0 0.00 0.00 0.00 32 1008.5
20260904011609 99 157 4.0 11.0 0.00 0.00 0.00 32 1008.4
20260904011057 99 160 5.0 11.0 0.00 0.00 0.00 32 1008.4
20260904010558 99 200 6.0 13.0 0.00 0.00 0.00 32 1008.5
20260904005600 99 163 6.0 13.0 0.00 0.00 0.00 32 1008.5
20260904005058 99 164 4.0 13.0 0.00 0.00 0.00 32 1008.5
20260904004604 99 141 7.0 15.0 0.00 0.00 0.00 32 1008.5
20260904004058 99 233 7.0 15.0 0.00 0.00 0.00 32 1008.5
20260904003558 100 96 5.0 12.0 0.00 0.00 0.00 32 1008.5
20260904003103 100 175 6.0 9.0 0.00 0.00 0.00 32 1008.5
20260904002558 100 132 4.0 7.0 0.00 0.00 0.00 34 1008.5
20260904002059 100 150 3.0 10.0 0.00 0.00 0.00 34 1008.6
20260904001603 100 158 4.0 10.0 0.00 0.00 0.00 34 1008.5
20260904001058 100 134 4.0 9.0 0.00 0.00 0.00 34 1008.6
20260904000558 100 121 3.0 7.0 0.00 0.00 0.00 34 1008.6
20260903235558 100 252 3.0 7.0 0.00 0.00 0.00 33 1008.8
20260903235057 100 270 4.0 7.0 0.00 0.00 0.00 33 1008.9
20260903234601 99 143 4.0 7.0 0.00 0.00 0.00 34 1008.8
20260903234058 99 96 4.0 8.0 0.00 0.00 0.00 35 1008.9
20260903233559 99 113 5.0 8.0 0.00 0.00 0.00 35 1008.9
20260903233101 99 113 4.0 10.0 0.00 0.00 0.00 35 1008.9
20260903232558 99 141 6.0 10.0 0.00 0.00 0.00 35 1008.9
20260903232058 100 146 5.0 14.0 0.00 0.00 0.00 34 1009.0
20260903231612 100 216 6.0 14.0 0.00 0.00 0.00 33 1009.1
20260903231058 100 157 6.0 12.0 0.00 0.00 0.00 33 1009.1
20260903230602 101 172 7.0 11.0 0.00 0.00 0.00 31 1009.1
20260903230113 102 142 4.0 8.0 0.00 0.00 0.00 32 1009.2
20260903225558 102 195 3.0 13.0 0.00 0.00 0.00 32 1009.2
20260903225100 102 207 4.0 13.0 0.00 0.00 0.00 32 1009.3
20260903224600 101 160 5.0 11.0 0.00 0.00 0.00 33 1009.2
20260903224058 100 207 2.0 6.0 0.00 0.00 0.00 34 1008.9
20260903223601 100 111 1.0 8.0 0.00 0.00 0.00 34 1009.4
20260903223113 100 226 3.0 8.0 0.00 0.00 0.00 34 1009.6
20260903222558 101 167 2.0 10.0 0.00 0.00 0.00 33 1009.7